Weather History for KETH - October, 2013

Change the Weather History Date:

Tuesday, October 15, 2013

  Actual Average Record
Temperature  
Mean Temperature 46 °F -  
Max Temperature 48 °F 57 °F 89 °F (1958)
Min Temperature 44 °F 36 °F 20 °F (1992)
Degree Days  
Heating Degree Days 19    
Moisture  
Dew Point 44 °F    
Average Humidity 93    
Maximum Humidity 100    
Minimum Humidity 81    
Precipitation  
Precipitation 0.99 in - - ()
Sea Level Pressure  
Sea Level Pressure 29.89 in    
Wind  
Wind Speed 16 mph (North)    
Max Wind Speed 23 mph    
Max Gust Speed 33 mph    
Visibility 9 miles    
Events Rain    
Averages and records for this station are not official NWS values.
T = Trace of Precipitation, MM = Missing Value Source: NWS Daily Summary

Daily Weather History Graph

Daily Weather History Graph

Search for Another Location

Airport or City:

Trip Planner

Search our weather history database for the weather conditions in past years. The results will help you decide how hot, cold, wet, or windy it might be!

Date:

Astronomy

Oct. 15, 2013 Rise Set
Actual Time 7:43 AM CDT 6:39 PM CDT
Civil Twilight 7:13 AM CDT 7:09 PM CDT
Nautical Twilight 6:38 AM CDT 7:44 PM CDT
Astronomical Twilight 6:04 AM CDT 8:18 PM CDT
Moon 4:53 PM CDT (10/15) 3:57 AM CDT (10/15)
Length of Visible Light 11h 56m
Length of Day
10h 56m
Waxing Gibbous, 88% of the Moon is Illuminated
Oct 15
Waxing Gibbous
Oct 18
Full
Oct 26
Last Quarter
Nov 3
New
Nov 9
First Quarter

Hourly Weather History & Observations

Time (CDT) Temp. Windchill Dew Point Humidity Pressure Visibility Wind Dir Wind Speed Gust Speed Precip Events Conditions
12:14 AM 46.4 °F 39.5 °F 46.4 °F 100% 29.87 in 7.0 mi NE 17.3 mph 21.9 mph 0.04 in Rain Light Rain
12:35 AM 46.4 °F 40.4 °F 46.4 °F 100% 29.87 in 4.0 mi NE 13.8 mph 18.4 mph 0.14 in Rain Light Rain
12:55 AM 48.2 °F - 46.4 °F 93% 29.86 in 10.0 mi NE 12.7 mph 19.6 mph 0.17 in Rain Light Rain
1:15 AM 48.2 °F - 46.4 °F 93% 29.85 in 10.0 mi NE 10.4 mph 20.7 mph 0.05 in Rain Light Rain
1:35 AM 48.2 °F - 46.4 °F 93% 29.84 in 10.0 mi NE 13.8 mph 20.7 mph 0.10 in Rain Light Rain
1:54 AM 48.2 °F - 46.4 °F 93% 29.83 in 10.0 mi NE 11.5 mph 20.7 mph 0.16 in Rain Light Rain
2:15 AM 48.2 °F - 46.4 °F 93% 29.83 in 7.0 mi NE 11.5 mph 18.4 mph 0.01 in Rain Rain
2:35 AM 48.2 °F - 46.4 °F 93% 29.83 in 10.0 mi NE 15.0 mph - 0.05 in Rain Rain
2:55 AM 48.2 °F - 46.4 °F 93% 29.82 in 10.0 mi NNE 12.7 mph 19.6 mph 0.11 in Rain Light Rain
3:14 AM 48.2 °F - 46.4 °F 93% 29.81 in 10.0 mi NNE 13.8 mph - 0.02 in Rain Light Rain
3:35 AM 46.4 °F 39.8 °F 46.4 °F 100% 29.81 in 3.0 mi NNE 16.1 mph 21.9 mph 0.17 in   Overcast
3:55 AM 46.4 °F 39.8 °F 46.4 °F 100% 29.81 in 7.0 mi NNE 16.1 mph 21.9 mph 0.30 in Rain Rain
4:14 AM 46.4 °F 39.2 °F 46.4 °F 100% 29.80 in 10.0 mi NNE 18.4 mph 26.5 mph 0.12 in Rain Light Rain
4:35 AM 46.4 °F 39.0 °F 46.4 °F 100% 29.79 in 10.0 mi NNE 19.6 mph 26.5 mph 0.21 in Rain Light Rain
4:54 AM 46.4 °F 39.8 °F 46.4 °F 100% 29.79 in 10.0 mi NNE 16.1 mph 26.5 mph 0.22 in Rain Light Rain
5:15 AM 46.4 °F 39.8 °F 46.4 °F 100% 29.78 in 10.0 mi NNE 16.1 mph 23.0 mph N/A Rain Light Rain
5:35 AM 46.4 °F 39.2 °F 46.4 °F 100% 29.78 in 10.0 mi NE 18.4 mph 26.5 mph N/A   Overcast
5:55 AM 46.4 °F 39.5 °F 46.4 °F 100% 29.77 in 10.0 mi NNE 17.3 mph 27.6 mph N/A   Overcast
6:14 AM 46.4 °F 39.8 °F 46.4 °F 100% 29.78 in 10.0 mi NNE 16.1 mph 24.2 mph N/A   Overcast
6:35 AM 46.4 °F 39.8 °F 46.4 °F 100% 29.78 in 10.0 mi NNE 16.1 mph 24.2 mph N/A   Overcast
6:54 AM 46.4 °F 39.5 °F 46.4 °F 100% 29.79 in 10.0 mi NNE 17.3 mph 23.0 mph N/A   Overcast
7:14 AM 46.4 °F 40.1 °F 44.6 °F 93% 29.79 in 10.0 mi NNE 15.0 mph 25.3 mph N/A   Overcast
7:34 AM 48.2 °F - 44.6 °F 87% 29.79 in 10.0 mi North 15.0 mph 23.0 mph N/A   Overcast
7:54 AM 48.2 °F - 44.6 °F 87% 29.80 in 10.0 mi North 16.1 mph 23.0 mph N/A   Drizzle
8:14 AM 46.4 °F 40.1 °F 44.6 °F 93% 29.81 in 10.0 mi North 15.0 mph 21.9 mph N/A   Light Drizzle
8:34 AM 46.4 °F 39.5 °F 44.6 °F 93% 29.81 in 10.0 mi North 17.3 mph - N/A Rain Light Rain
8:54 AM 46.4 °F 39.8 °F 44.6 °F 93% 29.82 in 10.0 mi North 16.1 mph 20.7 mph N/A   Light Drizzle
9:14 AM 46.4 °F 40.1 °F 44.6 °F 93% 29.83 in 5.0 mi North 15.0 mph 21.9 mph N/A Rain Light Rain
9:34 AM 46.4 °F 39.8 °F 44.6 °F 93% 29.84 in 5.0 mi North 16.1 mph 26.5 mph N/A Rain Light Rain
9:54 AM 46.4 °F 39.0 °F 44.6 °F 93% 29.85 in 7.0 mi North 19.6 mph 29.9 mph 0.01 in Rain Light Rain
10:15 AM 46.4 °F 39.0 °F 44.6 °F 93% 29.86 in 3.0 mi North 19.6 mph 25.3 mph N/A Rain Light Rain
10:36 AM 46.4 °F 39.8 °F 44.6 °F 93% 29.86 in 3.0 mi North 16.1 mph 24.2 mph N/A Rain Light Rain
10:54 AM 46.4 °F 39.5 °F 44.6 °F 93% 29.87 in 4.0 mi North 17.3 mph 23.0 mph N/A Rain Light Rain
11:15 AM 46.4 °F 39.0 °F 44.6 °F 93% 29.88 in 5.0 mi NNW 19.6 mph 33.4 mph N/A Rain Light Rain
11:35 AM 46.4 °F 39.2 °F 44.6 °F 93% 29.88 in 7.0 mi NNW 18.4 mph 26.5 mph 0.01 in Rain Light Rain
11:55 AM 46.4 °F 39.5 °F 44.6 °F 93% 29.88 in 5.0 mi North 17.3 mph 26.5 mph 0.01 in Rain Light Rain
12:14 PM 46.4 °F 38.3 °F 44.6 °F 93% 29.89 in 4.0 mi NNW 23.0 mph 27.6 mph N/A Rain Rain
12:35 PM 46.4 °F 39.5 °F 44.6 °F 93% 29.89 in 4.0 mi NNW 17.3 mph 26.5 mph N/A Rain Light Rain
12:55 PM 46.4 °F 38.7 °F 44.6 °F 93% 29.90 in 7.0 mi NNW 20.7 mph 31.1 mph N/A Rain Light Rain
1:15 PM 46.4 °F 38.7 °F 44.6 °F 93% 29.90 in 7.0 mi NNW 20.7 mph 26.5 mph N/A Rain Rain
1:35 PM 46.4 °F 39.0 °F 44.6 °F 93% 29.90 in 7.0 mi NNW 19.6 mph 29.9 mph N/A Rain Light Rain
1:55 PM 46.4 °F 39.5 °F 44.6 °F 93% 29.90 in 10.0 mi NNW 17.3 mph 28.8 mph 0.01 in Rain Light Rain
2:15 PM 46.4 °F 39.0 °F 44.6 °F 93% 29.91 in 10.0 mi NNW 19.6 mph 28.8 mph N/A Rain Light Rain
2:34 PM 46.4 °F 39.0 °F 44.6 °F 93% 29.91 in 10.0 mi NNW 19.6 mph 26.5 mph N/A Rain Light Rain
2:54 PM 46.4 °F 39.5 °F 44.6 °F 93% 29.91 in 7.0 mi NNW 17.3 mph 28.8 mph N/A Rain Light Rain
3:15 PM 46.4 °F 39.5 °F 44.6 °F 93% 29.92 in 4.0 mi NNW 17.3 mph 28.8 mph N/A Rain Light Rain
3:35 PM 44.6 °F 36.4 °F 44.6 °F 100% 29.92 in 4.0 mi NNW 20.7 mph 26.5 mph N/A Rain Light Rain
3:55 PM 44.6 °F 36.6 °F 42.8 °F 93% 29.93 in 10.0 mi NNW 19.6 mph 29.9 mph N/A Rain Light Rain
4:14 PM 44.6 °F 37.4 °F 42.8 °F 93% 29.94 in 10.0 mi NNW 16.1 mph 28.8 mph N/A   Light Drizzle
4:34 PM 44.6 °F 37.4 °F 42.8 °F 93% 29.94 in 10.0 mi NNW 16.1 mph 26.5 mph N/A   Drizzle
4:54 PM 44.6 °F 37.4 °F 42.8 °F 93% 29.94 in 10.0 mi NNW 16.1 mph 23.0 mph N/A Rain Light Rain
5:14 PM 46.4 °F 39.2 °F 44.6 °F 93% 29.95 in 10.0 mi NNW 18.4 mph 25.3 mph N/A   Light Drizzle
5:34 PM 44.6 °F 37.4 °F 42.8 °F 93% 29.95 in 10.0 mi NNW 16.1 mph 26.5 mph N/A Rain Light Rain
5:54 PM 44.6 °F 36.9 °F 44.6 °F 100% 29.96 in 10.0 mi NNW 18.4 mph 31.1 mph N/A   Overcast
6:14 PM 44.6 °F 37.8 °F 42.8 °F 93% 29.96 in 10.0 mi NNW 15.0 mph 26.5 mph N/A   Overcast
6:34 PM 44.6 °F 37.4 °F 42.8 °F 93% 29.97 in 10.0 mi NNW 16.1 mph 23.0 mph N/A   Overcast
6:54 PM 44.6 °F 36.9 °F 42.8 °F 93% 29.98 in 10.0 mi NNW 18.4 mph 25.3 mph N/A   Overcast
7:14 PM 44.6 °F 37.8 °F 42.8 °F 93% 29.99 in 10.0 mi NNW 15.0 mph 21.9 mph N/A   Overcast
7:35 PM 44.6 °F 37.4 °F 42.8 °F 93% 29.99 in 10.0 mi NNW 16.1 mph 27.6 mph N/A   Overcast
7:54 PM 44.6 °F 36.9 °F 42.8 °F 93% 30.00 in 10.0 mi NW 18.4 mph 24.2 mph N/A   Overcast
8:14 PM 44.6 °F 36.4 °F 42.8 °F 93% 30.01 in 10.0 mi NNW 20.7 mph 26.5 mph N/A   Overcast
8:34 PM 44.6 °F 37.8 °F 42.8 °F 93% 30.01 in 10.0 mi NNW 15.0 mph 24.2 mph N/A   Overcast
8:54 PM 44.6 °F 37.4 °F 41.0 °F 87% 30.01 in 10.0 mi NW 16.1 mph 26.5 mph N/A   Overcast
9:14 PM 44.6 °F 36.9 °F 41.0 °F 87% 30.02 in 10.0 mi NNW 18.4 mph 24.2 mph N/A   Overcast
9:34 PM 44.6 °F 38.4 °F 41.0 °F 87% 30.02 in 10.0 mi NW 12.7 mph 17.3 mph N/A   Overcast
9:55 PM 44.6 °F 37.4 °F 41.0 °F 87% 30.03 in 10.0 mi NW 16.1 mph 20.7 mph N/A   Overcast
10:15 PM 44.6 °F 37.8 °F 41.0 °F 87% 30.03 in 10.0 mi NNW 15.0 mph - N/A   Overcast
10:35 PM 44.6 °F 38.1 °F 41.0 °F 87% 30.03 in 10.0 mi NW 13.8 mph - N/A   Overcast
10:54 PM 44.6 °F 38.4 °F 41.0 °F 87% 30.04 in 10.0 mi NNW 12.7 mph 19.6 mph N/A   Overcast
11:15 PM 44.6 °F 38.4 °F 41.0 °F 87% 30.04 in 10.0 mi NNW 12.7 mph 21.9 mph N/A   Overcast
11:35 PM 44.6 °F 37.8 °F 39.2 °F 81% 30.04 in 10.0 mi NW 15.0 mph 18.4 mph N/A   Overcast
11:55 PM 44.6 °F 38.1 °F 39.2 °F 81% 30.04 in 10.0 mi NW 13.8 mph 18.4 mph N/A   Overcast